Theta_e
343 343 341 342 341 342 341 340 341 342 343 342 341 341 342 344 345 343 342 342 342 342 342 341 343 343 343 344 344 344 343 343 344 343 343 342 341 341 338 338 341 339
344 344 344 343 342 341 340 341 342 341 342 343 343 343 344 345 345 344 343 342 342 343 344 344 345 345 345 344 345 345 343 343 344 344 343 343 342 342 341 341 340 340
344 345 343 342 342 342 341 343 344 343 342 343 344 344 345 346 346 345 344 344 342 343 344 345 346 346 345 346 345 343 342 342 342 343 342 341 342 341 341 341 341 340
343 344 343 343 344 343 344 344 345 345 344 343 343 344 345 345 345 344 344 343 343 343 345 345 345 344 344 344 344 342 343 342 342 343 342 342 342 341 341 340 340 339
342 342 343 343 344 344 345 342 342 344 344 343 344 344 344 344 344 343 343 343 344 344 344 344 344 343 344 343 343 342 343 341 342 341 340 340 341 341 341 340 338 337
342 342 344 343 344 344 344 344 341 342 344 343 344 344 344 344 342 342 343 343 343 343 343 343 343 343 343 343 343 343 342 341 341 341 340 339 340 340 340 339 337 336
342 343 344 344 345 343 345 345 344 343 343 345 344 343 342 342 341 341 341 342 342 343 341 342 343 343 343 343 342 341 342 342 342 341 339 339 339 339 339 339 336 336
343 344 343 344 345 341 337 340 343 345 344 344 344 342 342 340 341 342 342 342 340 341 343 343 343 343 344 343 341 341 341 342 341 340 339 338 339 338 339 339 338 336
343 343 343 344 345 344 342 341 344 344 344 343 341 341 341 340 339 340 340 341 341 341 342 343 343 342 343 342 341 341 340 341 341 340 340 339 338 337 338 339 338 337
343 343 343 343 343 344 344 344 344 343 344 344 342 340 339 339 339 339 340 340 341 339 340 340 342 343 343 342 341 341 340 340 340 340 340 340 338 337 337 337 337 337
343 341 340 341 343 343 345 345 344 344 342 342 342 341 340 338 337 338 339 340 340 340 341 341 342 343 343 342 343 342 341 340 340 339 340 339 339 339 337 338 338 337
341 341 342 342 343 343 344 344 343 339 340 342 341 340 340 340 339 339 338 338 339 340 340 340 341 340 341 342 342 343 342 340 341 340 340 340 340 340 339 339 339 339
339 342 342 341 342 343 343 343 342 342 341 341 341 341 340 340 339 339 339 338 337 338 338 339 340 340 341 341 342 342 342 340 340 340 340 341 341 340 340 340 339 338
333 335 338 339 341 342 342 342 342 342 341 342 342 341 341 340 340 338 337 337 337 336 337 338 338 339 340 341 341 341 340 340 339 340 339 339 340 340 341 340 340 339
331 333 334 334 341 342 341 342 342 342 342 342 342 342 341 341 340 339 336 335 336 338 337 337 337 338 339 341 342 341 341 339 339 339 339 339 339 340 341 341 340 340
329 326 329 332 335 339 339 340 341 342 342 340 341 342 342 341 336 335 338 336 335 335 337 337 338 339 332 322 324 340 341 339 339 340 340 340 339 339 339 339 340 341
326 329 329 327 330 337 339 340 339 337 337 339 339 339 339 339 337 336 337 337 335 334 334 336 337 337 319 312 312 316 334 340 339 339 340 340 339 339 338 339 340 340
325 328 330 329 329 332 337 340 340 338 337 338 338 338 338 339 338 337 337 337 337 336 337 337 337 325 311 310 309 309 317 339 340 338 338 338 338 338 339 339 340 340
330 330 327 327 329 333 333 338 336 338 336 338 338 339 340 338 337 338 338 337 337 337 337 338 339 318 309 309 308 308 309 323 339 339 338 338 338 339 339 339 339 340
330 324 323 324 326 326 327 329 332 331 335 334 335 338 339 339 338 338 338 338 339 338 338 339 338 321 307 307 307 307 307 314 339 339 340 340 339 340 341 341 341 340
326 327 323 323 327 328 328 326 330 333 333 332 336 339 337 336 338 339 339 339 339 340 339 339 340 318 305 304 305 305 306 309 337 339 339 339 340 341 342 342 342 342
325 325 326 323 323 326 328 329 328 329 333 339 338 339 340 341 341 340 338 338 340 340 340 340 342 314 305 304 304 304 304 320 334 337 338 338 339 339 341 342 342 342
319 322 325 327 329 329 328 329 330 330 334 336 333 335 333 336 337 338 339 338 339 340 339 339 341 322 304 304 304 303 306 326 333 336 337 337 338 339 340 341 341 342
317 319 321 325 326 325 328 328 328 329 328 332 335 336 338 338 338 340 341 341 339 340 340 340 340 328 305 304 303 302 311 329 333 335 336 336 337 339 339 338 339 327
315 317 319 321 324 327 328 329 330 330 331 330 330 331 336 338 338 340 338 339 339 341 328 336 339 331 306 303 302 301 310 331 335 336 335 335 335 337 339 338 338 331
314 315 317 319 322 325 329 330 330 331 333 333 332 330 333 335 336 336 337 337 340 340 339 340 339 340 329 301 303 301 304 329 337 336 333 333 336 336 337 339 337 338
Wind_Speed
17 15 18 15 14 11 11 12 13 15 14 10 10 11 11 12 13 14 14 14 15 15 16 16 15 13 12 13 13 13 12 14 12 12 13 13 12 13 13 14 13 12
19 18 14 14 14 12 12 12 12 12 13 12 9 9 10 11 12 13 13 14 15 15 16 16 14 14 13 13 13 13 12 13 14 11 13 15 13 13 13 14 14 13
17 16 17 19 17 17 16 12 11 10 11 11 10 8 8 9 12 13 13 14 16 15 15 15 15 14 14 14 14 14 13 13 14 13 13 15 13 13 13 13 13 15
17 16 18 20 18 16 15 11 10 9 8 10 13 11 8 8 10 13 13 15 14 15 15 16 16 14 15 15 14 13 13 13 14 14 13 11 12 13 13 13 13 13
19 18 18 17 17 16 12 14 13 10 11 10 10 11 10 9 9 10 12 14 14 15 14 15 15 15 15 14 14 12 13 12 13 13 13 13 12 13 13 13 13 14
17 17 19 19 16 15 15 15 14 12 10 11 11 11 11 10 10 11 13 14 13 14 14 14 14 14 15 15 14 13 13 12 12 14 14 14 14 13 11 12 14 14
15 16 20 18 15 10 13 15 14 13 13 10 12 13 14 13 13 13 14 14 14 10 14 14 14 14 13 14 14 15 14 15 14 15 16 14 14 14 14 14 14 14
19 17 16 18 15 13 18 16 16 13 14 13 13 13 12 14 15 14 15 14 14 15 14 14 15 15 14 14 14 14 15 12 14 16 16 16 15 15 15 13 13 14
16 17 18 17 17 17 19 18 12 12 14 17 16 12 14 15 14 14 15 15 14 11 15 16 17 16 14 15 15 15 15 16 16 16 17 16 16 16 15 14 13 13
18 18 19 18 18 17 17 16 13 11 13 16 15 12 13 12 12 14 14 14 14 17 16 16 16 15 15 15 16 16 15 16 17 16 16 16 16 15 15 14 13 12
19 17 17 19 18 17 18 17 15 12 12 17 16 15 15 12 12 14 14 14 13 15 16 15 15 14 16 17 16 16 15 15 16 16 16 16 16 15 15 15 14 14
18 17 18 20 20 19 17 16 16 16 16 15 17 19 16 15 14 12 12 14 15 16 15 15 15 15 16 16 16 16 15 14 14 15 16 15 15 15 15 15 14 15
11 15 16 18 16 16 16 17 17 16 16 18 18 18 17 16 17 16 13 14 15 15 15 15 16 16 15 14 15 15 15 15 15 15 14 14 15 17 17 16 16 15
9 11 13 15 16 15 15 15 17 18 18 17 18 21 18 17 17 15 11 12 13 13 14 13 14 16 16 15 15 15 14 14 15 14 15 15 14 15 16 16 16 16
9 10 11 17 18 18 17 17 19 19 18 15 15 17 16 16 13 11 11 11 12 12 13 12 14 15 14 14 15 16 14 14 14 15 16 16 16 16 16 16 16 16
8 7 9 13 17 16 17 15 13 12 14 15 18 17 16 12 13 13 11 12 12 12 11 12 14 14 14 18 15 13 14 13 13 14 16 16 16 16 16 17 17 17
7 11 12 12 13 14 16 17 17 15 15 18 18 17 18 15 13 15 16 15 16 14 14 12 14 14 19 19 19 17 14 14 13 13 14 15 16 16 16 17 17 18
11 13 11 14 16 16 14 15 14 11 14 18 17 17 17 16 17 17 14 14 12 14 14 14 15 16 19 20 20 20 17 13 12 11 11 12 15 17 16 16 17 17
10 11 13 12 10 12 14 14 16 15 15 15 17 17 14 19 21 20 20 16 14 16 16 16 14 14 20 21 21 21 21 16 12 13 13 14 16 18 18 17 16 15
4 7 9 12 11 10 11 15 14 15 15 15 18 17 15 16 17 18 19 20 17 18 17 15 16 14 19 20 21 22 23 19 15 17 17 17 18 18 16 17 17 16
8 5 8 10 9 10 11 13 17 14 16 17 16 14 15 18 17 18 17 17 18 18 16 15 13 17 16 18 19 21 21 18 16 17 17 16 17 17 18 18 18 16
12 10 5 11 12 12 12 14 14 14 15 11 8 9 11 13 14 13 15 17 18 18 17 17 16 18 18 19 21 20 21 13 14 17 18 16 15 16 16 16 15 17
13 12 12 8 8 10 11 11 12 13 14 10 13 14 13 14 12 15 16 17 17 17 17 16 15 16 18 20 21 21 14 11 13 16 17 17 16 16 16 15 14 17
12 12 12 12 11 9 8 11 11 9 11 10 11 12 13 13 14 12 12 12 15 16 16 16 15 15 18 20 22 20 18 13 14 17 17 13 16 17 16 15 17 18
11 11 11 11 12 12 10 9 8 10 11 10 10 12 12 11 12 10 11 11 13 14 14 15 15 14 15 19 20 21 19 13 16 16 16 16 17 16 15 15 16 14
11 11 11 11 11 12 11 10 9 9 8 8 9 11 11 10 11 12 15 14 13 13 13 15 17 15 12 17 19 20 23 15 17 16 16 16 15 14 13 14 16 16
Wind_Direction
217 220 217 211 213 211 206 198 202 206 208 200 200 202 203 203 202 201 194 199 203 205 208 208 200 197 200 202 205 210 211 213 214 218 219 218 220 221 224 227 229 234
220 219 217 215 212 206 206 201 193 200 206 202 196 202 205 197 194 202 193 199 204 205 206 207 199 195 196 201 203 208 213 214 216 215 219 218 220 220 224 228 229 231
220 223 222 221 218 213 209 197 188 192 199 192 192 196 205 204 190 198 201 201 208 208 208 209 204 202 204 207 209 214 218 218 219 217 220 222 220 223 225 226 230 232
217 222 224 224 222 220 210 194 181 184 193 190 194 188 187 195 188 195 202 204 208 208 207 210 209 206 209 214 216 216 214 219 219 216 216 219 225 225 226 227 227 230
218 218 224 224 225 221 205 203 196 185 171 178 185 185 176 170 164 191 204 205 208 212 211 210 211 214 213 213 213 214 215 218 220 219 220 217 219 225 227 226 226 228
213 214 220 225 228 221 214 210 195 189 179 180 184 185 184 180 182 198 204 210 211 216 216 215 213 213 215 215 213 216 216 217 219 217 217 222 224 220 225 227 226 224
215 215 220 221 214 222 232 215 200 194 195 178 180 191 198 193 188 197 209 215 217 213 223 213 211 209 212 215 215 216 216 216 216 219 219 221 223 220 219 224 225 223
223 222 223 227 221 194 228 226 216 198 202 180 183 180 183 201 194 199 210 210 213 212 214 215 208 205 206 210 211 212 214 214 217 217 220 222 219 223 222 221 224 225
222 225 225 225 219 210 208 218 205 209 203 200 189 172 180 187 194 198 200 202 198 215 226 214 208 202 205 209 210 211 210 214 217 218 218 219 219 221 223 221 219 223
225 223 223 221 223 222 218 207 196 194 200 195 187 171 177 176 184 194 196 197 200 195 216 220 218 202 200 210 211 210 211 214 216 218 221 221 221 219 221 223 218 214
227 223 221 222 219 221 216 210 201 187 192 200 192 183 188 184 192 197 198 198 202 206 211 215 218 215 207 206 210 212 213 213 215 219 222 224 222 219 222 222 221 217
227 225 224 221 222 221 217 214 204 199 199 197 198 191 186 193 190 190 196 201 204 209 211 212 214 216 219 216 214 215 217 218 216 215 217 221 221 219 219 221 222 220
247 232 226 224 216 217 217 211 203 197 201 211 210 197 187 190 193 189 192 201 207 208 211 211 214 213 216 214 214 214 214 218 220 217 216 219 222 219 219 219 219 219
237 241 240 234 220 210 206 207 215 215 213 212 214 214 202 192 190 188 181 196 203 204 208 214 219 215 212 212 213 214 214 214 219 221 219 219 223 223 219 219 216 215
248 241 240 239 224 210 206 212 218 218 217 214 216 216 215 203 194 191 189 198 200 201 204 205 216 219 214 210 214 215 205 203 209 218 221 220 219 220 219 218 217 216
229 245 260 253 239 222 213 208 203 206 208 212 210 209 210 199 177 201 203 203 196 201 202 204 209 215 202 194 199 203 202 201 202 213 220 221 221 220 219 219 218 216
230 234 219 246 262 245 227 214 207 203 210 209 211 209 210 200 203 199 196 191 197 196 200 208 217 215 197 189 194 200 203 204 200 199 216 223 221 220 218 216 219 220
228 243 249 222 223 237 236 225 212 211 217 217 208 205 203 203 205 206 198 195 198 202 199 203 215 215 199 194 192 195 200 205 204 203 204 216 223 222 221 219 219 220
208 227 238 256 270 259 244 235 226 216 222 223 215 203 202 208 211 210 208 200 198 204 206 206 215 213 204 197 191 192 196 200 203 205 209 211 216 220 223 223 223 221
192 221 242 248 247 240 251 262 244 231 223 220 218 208 204 204 203 209 212 210 206 208 211 211 218 215 212 203 191 191 195 195 207 211 214 216 214 217 219 220 216 216
334 206 255 273 262 253 242 245 257 240 223 219 218 204 203 203 202 206 207 208 209 210 212 212 216 213 200 204 200 196 197 195 209 215 219 221 219 219 223 225 224 220
334 328 210 219 245 244 246 240 233 242 247 232 229 225 214 205 205 207 211 213 211 212 213 215 216 203 197 197 200 199 193 196 209 217 222 226 225 225 225 227 229 229
328 324 324 291 243 238 246 252 250 240 242 237 226 217 217 219 214 210 206 209 210 211 216 218 222 206 193 197 200 199 185 201 207 217 224 226 228 225 228 226 224 228
321 320 316 313 303 281 236 230 246 263 273 255 245 232 222 215 213 213 212 213 216 215 215 219 222 215 192 196 198 188 188 200 209 217 222 228 230 229 230 231 228 217
314 314 313 309 304 298 289 267 225 220 224 237 255 253 242 230 221 216 216 216 221 222 220 224 228 225 193 196 192 186 191 205 212 219 220 223 228 230 228 231 234 217
308 306 305 305 301 299 297 289 278 261 239 217 221 244 251 244 230 223 219 219 218 220 223 222 229 234 210 194 189 190 191 202 215 217 221 220 225 229 228 226 229 234